• In Hungary
  • List of Countries
  • For 7 days
  • Water Temperature
  • Satellite Maps
  • Weather Map
  • News
  • Weather Widgets
  • user-avatar
    Login

    Hourly Weather Kurow

    Today, 19 January, Friday

    Time Temperature Precipitation Wind Pressure Humidity
    00:00 -2°C° 0.1 mm 8 mps 701 mmHg 76%
    01:00 -2°C° 0 mm 6 mps 701 mmHg 78%
    02:00 -3°C° 0.1 mm 6 mps 701 mmHg 78%
    03:00 -3°C° 0.1 mm 6 mps 702 mmHg 78%
    04:00 -3°C° 0.1 mm 6 mps 702 mmHg 78%
    05:00 -3°C° 0.1 mm 6 mps 702 mmHg 80%
    06:00 -4°C° 0.1 mm 6 mps 703 mmHg 81%
    07:00 -4°C° 0 mm 5 mps 704 mmHg 84%
    08:00 -2°C° 0.1 mm 5 mps 704 mmHg 83%
    09:00 -2°C° 0.1 mm 5 mps 705 mmHg 82%
    10:00 -2°C° 0.1 mm 5 mps 706 mmHg 81%
    11:00 -2°C° 0.1 mm 4 mps 706 mmHg 80%
    12:00 -1°C° 0.1 mm 4 mps 706 mmHg 78%
    13:00 -1°C° 0.1 mm 4 mps 707 mmHg 77%
    14:00 -1°C° 0 mm 3 mps 707 mmHg 81%
    15:00 -1°C° 0 mm 2 mps 707 mmHg 84%
    16:00 0°C° 0 mm 1 mps 707 mmHg 87%
    17:00 0°C° 0 mm 1 mps 708 mmHg 89%
    18:00 -1°C° 0 mm 1 mps 708 mmHg 90%
    19:00 -2°C° 0 mm 1 mps 708 mmHg 92%
    20:00 -2°C° 0 mm 1 mps 709 mmHg 92%
    21:00 -2°C° 0 mm 1 mps 709 mmHg 92%
    22:00 -2°C° 0 mm 1 mps 709 mmHg 91%
    23:00 -2°C° 0 mm 1 mps 710 mmHg 91%

    Tomorrow, 20 January, Saturday

    Time Temperature Precipitation Wind Pressure Humidity
    00:00 -2°C° 0 mm 1 mps 710 mmHg 91%
    01:00 -2°C° 0 mm 1 mps 710 mmHg 90%
    02:00 -2°C° 0 mm 1 mps 710 mmHg 90%
    03:00 -3°C° 0 mm 1 mps 710 mmHg 90%
    04:00 -5°C° 0 mm 2 mps 709 mmHg 89%
    05:00 -5°C° 0 mm 2 mps 709 mmHg 89%
    06:00 -5°C° 0 mm 2 mps 709 mmHg 88%
    07:00 -5°C° 0 mm 2 mps 709 mmHg 88%
    08:00 -4°C° 0 mm 2 mps 710 mmHg 85%
    09:00 -3°C° 0 mm 2 mps 710 mmHg 82%
    10:00 -2°C° 0 mm 2 mps 710 mmHg 78%
    11:00 -2°C° 0.1 mm 2 mps 709 mmHg 77%
    12:00 -1°C° 0.1 mm 2 mps 709 mmHg 76%
    13:00 -1°C° 0.1 mm 2 mps 709 mmHg 74%
    14:00 -1°C° 0.1 mm 2 mps 708 mmHg 77%
    15:00 -1°C° 0.1 mm 2 mps 708 mmHg 81%
    16:00 0°C° 0.1 mm 1 mps 708 mmHg 84%
    17:00 0°C° 0.3 mm 1 mps 707 mmHg 86%
    18:00 -1°C° 0.3 mm 1 mps 707 mmHg 89%
    19:00 -1°C° 0.3 mm 1 mps 707 mmHg 91%
    20:00 -1°C° 0.2 mm 1 mps 707 mmHg 92%
    21:00 -1°C° 0.2 mm 1 mps 707 mmHg 92%
    22:00 -1°C° 0.2 mm 1 mps 707 mmHg 93%
    23:00 -1°C° 0.1 mm 1 mps 707 mmHg 93%

    Day after tomorrow, 21 January, Sunday

    Time Temperature Precipitation Wind Pressure Humidity
    00:00 -1°C° 0.1 mm 1 mps 707 mmHg 93%
    01:00 -2°C° 0.1 mm 1 mps 707 mmHg 93%
    02:00 -1°C° 0.5 mm 1 mps 707 mmHg 93%
    03:00 -1°C° 0.5 mm 1 mps 707 mmHg 93%
    04:00 -1°C° 0.5 mm 1 mps 706 mmHg 94%
    05:00 -1°C° 0.6 mm 1 mps 707 mmHg 94%
    06:00 -1°C° 0.6 mm 1 mps 707 mmHg 95%
    07:00 -1°C° 0.6 mm 1 mps 707 mmHg 96%
    08:00 -1°C° 0.5 mm 1 mps 707 mmHg 95%
    09:00 -1°C° 0.5 mm 1 mps 707 mmHg 94%
    10:00 -3°C° 0.5 mm 2 mps 707 mmHg 93%
    11:00 -2°C° 0.4 mm 2 mps 708 mmHg 93%
    12:00 -2°C° 0.4 mm 3 mps 708 mmHg 92%
    13:00 -2°C° 0.4 mm 3 mps 708 mmHg 91%
    14:00 -4°C° 0.3 mm 3 mps 708 mmHg 91%
    15:00 -4°C° 0.3 mm 3 mps 709 mmHg 91%
    16:00 -4°C° 0.3 mm 3 mps 709 mmHg 90%
    17:00 -4°C° 0.2 mm 3 mps 710 mmHg 91%
    18:00 -5°C° 0.2 mm 3 mps 711 mmHg 92%
    19:00 -4°C° 0.2 mm 2 mps 711 mmHg 92%
    20:00 -4°C° 0.1 mm 2 mps 712 mmHg 93%
    21:00 -5°C° 0.1 mm 2 mps 712 mmHg 93%
    22:00 -5°C° 0.1 mm 2 mps 713 mmHg 94%
    23:00 -5°C° 0.1 mm 2 mps 713 mmHg 94%

    22 January, Monday

    Time Temperature Precipitation Wind Pressure Humidity
    00:00 -5°C° 0.1 mm 2 mps 713 mmHg 94%
    01:00 -5°C° 0.1 mm 2 mps 714 mmHg 94%
    02:00 -4°C° 0 mm 1 mps 714 mmHg 95%
    03:00 -4°C° 0 mm 1 mps 714 mmHg 95%
    04:00 -6°C° 0 mm 1 mps 714 mmHg 95%
    05:00 -6°C° 0 mm 1 mps 714 mmHg 95%
    06:00 -6°C° 0 mm 1 mps 715 mmHg 95%
    07:00 -6°C° 0 mm 1 mps 715 mmHg 95%
    08:00 -6°C° 0 mm 1 mps 715 mmHg 92%
    09:00 -4°C° 0 mm 1 mps 715 mmHg 89%
    10:00 -3°C° 0 mm 1 mps 716 mmHg 87%
    11:00 -2°C° 0 mm 1 mps 715 mmHg 84%
    12:00 -2°C° 0 mm 1 mps 715 mmHg 80%
    13:00 -3°C° 0 mm 2 mps 715 mmHg 77%
    14:00 -3°C° 0 mm 2 mps 715 mmHg 80%
    15:00 -4°C° 0 mm 2 mps 715 mmHg 82%
    16:00 -4°C° 0 mm 2 mps 714 mmHg 85%
    17:00 -5°C° 0 mm 2 mps 714 mmHg 85%
    18:00 -5°C° 0 mm 2 mps 715 mmHg 86%
    19:00 -6°C° 0 mm 2 mps 715 mmHg 86%
    20:00 -6°C° 0 mm 2 mps 715 mmHg 85%
    21:00 -6°C° 0 mm 2 mps 715 mmHg 84%
    22:00 -6°C° 0 mm 2 mps 715 mmHg 83%
    23:00 -6°C° 0 mm 2 mps 715 mmHg 83%

    23 January, Tuesday

    Time Temperature Precipitation Wind Pressure Humidity
    00:00 -6°C° 0 mm 2 mps 715 mmHg 83%
    01:00 -6°C° 0 mm 2 mps 715 mmHg 82%
    02:00 -6°C° 0 mm 2 mps 715 mmHg 83%
    03:00 -5°C° 0 mm 2 mps 715 mmHg 84%
    04:00 -5°C° 0 mm 2 mps 715 mmHg 84%
    05:00 -5°C° 0.1 mm 2 mps 715 mmHg 85%
    06:00 -5°C° 0.1 mm 2 mps 716 mmHg 86%
    07:00 -4°C° 0.1 mm 2 mps 716 mmHg 86%
    08:00 -4°C° 0.3 mm 2 mps 717 mmHg 88%
    09:00 -4°C° 0.3 mm 2 mps 717 mmHg 90%
    10:00 -4°C° 0.3 mm 2 mps 718 mmHg 92%
    11:00 -3°C° 0.2 mm 2 mps 718 mmHg 91%
    12:00 -2°C° 0.2 mm 2 mps 718 mmHg 91%
    13:00 -2°C° 0.2 mm 2 mps 719 mmHg 90%
    14:00 -2°C° 0 mm 2 mps 719 mmHg 91%
    15:00 -1°C° 0 mm 2 mps 719 mmHg 92%
    16:00 -1°C° 0 mm 2 mps 720 mmHg 92%
    17:00 -2°C° 0 mm 2 mps 720 mmHg 92%
    18:00 -2°C° 0 mm 2 mps 721 mmHg 92%
    19:00 -3°C° 0 mm 2 mps 721 mmHg 93%
    20:00 -3°C° 0 mm 2 mps 721 mmHg 92%
    21:00 -3°C° 0 mm 2 mps 721 mmHg 92%
    22:00 -4°C° 0 mm 2 mps 722 mmHg 92%
    23:00 -4°C° 0 mm 2 mps 722 mmHg 92%

    24 January, Wednesday

    Time Temperature Precipitation Wind Pressure Humidity
    00:00 -4°C° 0 mm 2 mps 722 mmHg 92%
    01:00 -4°C° 0 mm 2 mps 722 mmHg 92%
    02:00 -4°C° 0 mm 2 mps 722 mmHg 92%
    03:00 -4°C° 0 mm 2 mps 722 mmHg 91%
    04:00 -3°C° 0 mm 2 mps 722 mmHg 91%
    05:00 -3°C° 0 mm 2 mps 722 mmHg 91%
    06:00 -2°C° 0 mm 2 mps 723 mmHg 91%
    07:00 -2°C° 0 mm 2 mps 723 mmHg 91%
    08:00 -1°C° 0 mm 2 mps 723 mmHg 92%
    09:00 +1°C° 0 mm 2 mps 724 mmHg 94%
    10:00 +2°C° 0 mm 2 mps 724 mmHg 95%
    11:00 +2°C° 0 mm 2 mps 724 mmHg 96%
    12:00 +2°C° 0 mm 2 mps 724 mmHg 96%
    13:00 +3°C° 0 mm 2 mps 724 mmHg 96%
    14:00 +2°C° 0 mm 2 mps 724 mmHg 96%
    15:00 +2°C° 0 mm 2 mps 724 mmHg 96%
    16:00 +1°C° 0 mm 2 mps 724 mmHg 95%
    17:00 +1°C° 0 mm 2 mps 724 mmHg 95%
    18:00 +1°C° 0 mm 2 mps 724 mmHg 94%
    19:00 -1°C° 0 mm 2 mps 724 mmHg 93%
    20:00 -1°C° 0 mm 2 mps 724 mmHg 93%
    21:00 -1°C° 0 mm 2 mps 724 mmHg 93%
    22:00 -1°C° 0 mm 2 mps 724 mmHg 92%
    23:00 -1°C° 0 mm 2 mps 724 mmHg 92%
    Show more